User: anonymous   Login
Location: Chemnitz
(49.5500°N, 11.5830°E)
Time: 03:50:05
(UTC+02:00)
Language:

ISS - Orbit

View from above orbital plane
View from above orbital plane
View from above satellite
View from above satellite

Ground track
Ground track

The orbit data is extracted from the following two-line orbital elements,

1 25544U 98067A   17149.51523002  .00016717  00000-0  10270-3 0  9030
2 25544  51.6369 131.3945 0004791 210.0722 150.0156 15.53921794 18848
Epoch (UTC): 29 May 2017 12:21:55
Eccentricity: 0.0004791
inclination: 51.6369°
perigee height: 402 km
apogee height: 408 km
right ascension of ascending node: 131.3945°
argument of perigee: 210.0722°
revolutions per day: 15.53921794
mean anomaly at epoch: 150.0156°
orbit number at epoch: 1884

The dashed part of the orbit path shows where the satellite is in the earth's shadow,  

DLR